Weather in Kandla

India     23°04′01″N   70°07′53″E
temp.,
°C
wind,
m/s
gust,
m/s
humid.,
%
clouds,
%
prec.,
mm/h
press.,
hPa
HPBL,
m
22 october, fri
fri2223:30+27w67540 0.0 1013631
02:30+26wnw57590 0.0 1012563
05:30+25w46580 0.0 1012531
08:30+26w45550 0.0 1014815
11:30+29sw66470 0.0 10141280
14:30+29sw77460 0.0 10111243
17:30+29wsw87451 0.0 10111257
20:30+27wsw77560 0.0 1013875
23 october, sat
sat2323:30+27wsw67600 0.0 1013897
02:30+26wsw67636 0.0 1011799
05:30+26wsw676458 0.0 1011795
08:30+27wsw675711 0.0 10121290
11:30+28sw785982 0.0 10121302
14:30+30sw995523 0.0 10101529
17:30+29sw995859 0.0 10101477
20:30+28wsw89602 0.0 10111193
24 october, sun
sun2423:30+28wsw710610 0.0 1012889
02:30+27wsw79570 0.0 1011729
05:30+27wsw59600 0.0 1011738
08:30+28w68530 0.0 10131123
11:30+30wsw77390 0.0 10131632
14:30+31sw88380 0.0 10111696
17:30+30sw77410 0.0 10111462
20:30+29wsw67490 0.0 1013718
25 october, mon
mon2523:30+28wsw57550 0.0 1013713
02:30+27w46590 0.0 1012500
05:30+26wnw34620 0.0 1012258
08:30+27wnw12550 0.0 1014396
11:30+29ssw33470 0.0 10141220
14:30+30sw44390 0.0 10121167
17:30+31wsw43340 0.0 1011821
20:30+29w55440 0.0 1012294
26 october, tue
tue2623:30+28w34500 0.0 1012310
02:30+27wnw345110 0.0 1011210
05:30+26wnw345378 0.0 1011210
08:30+27nw33490 0.0 1013282
11:30+31ne22390 0.0 10131216
14:30+32ssw433437 0.0 10102135
17:30+32nnw553663 0.0 10101208
20:30+30nne57360 0.0 1011307